Regional Weather Roundup
Issued by NWS

Home | Current Version | Previous Version | Text Only | Print | Product List | Glossary Off
Versions: 1 2 3 4 5 6 7 8 9 10 11 12 13 14 15 16 17 18 19 20 21 22 23 24 25 26 27 28 29 30 31 32 33 34 35 36 37 38 39 40 41 42 43 44 45 46 47 48 49 50

000
ASUS43 KFSD 301410
RWRSD

WEATHER ROUNDUP FOR SOUTH DAKOTA
NATIONAL WEATHER SERVICE SIOUX FALLS SD
900 AM CDT THU OCT 30 2014

NOTE: "FAIR" INDICATES FEW OR NO CLOUDS BELOW 12,000 FEET WITH NO
SIGNIFICANT WEATHER AND/OR OBSTRUCTIONS TO VISIBILITY.


SDZ001>005-009-010-012>017-301500-
NORTHWEST AND NORTH CENTRAL SOUTH DAKOTA

CITY           SKY/WX    TMP DP  RH WIND       PRES   REMARKS
BUFFALO          N/A     33  31  92 N20       30.21R WCI  21
FAITH            N/A     34  31  88 NW16      30.24R WCI  24
MOBRIDGE       CLEAR     38  34  85 N18G26    30.17R
$$

SDZ012>016-024>037-041>051-057-063-072>074-301500-
SOUTHWEST AND SOUTH CENTRAL SOUTH DAKOTA

CITY           SKY/WX    TMP DP  RH WIND       PRES   REMARKS
RAPID CTY ARPT CLEAR     36  29  75 CALM      30.25R
PIERRE         CLEAR     41  36  82 NW16      30.18R
CUSTER         CLEAR     37  28  70 W3        30.28R
ELLSWORTH AFB  CLEAR     45  33  61 NW8       30.24R
PHILIP         CLEAR     38  32  79 W9        30.25R
PINE RIDGE     CLEAR     32  27  81 CALM      30.27R
SPEARFISH      FAIR      45  32  61 W10       30.28R
WINNER         FAIR      41  34  76 NW12      30.18R
$$

SDZ004>011-016>023-039-040-301500-
NORTHEAST SOUTH DAKOTA

CITY           SKY/WX    TMP DP  RH WIND       PRES   REMARKS
ABERDEEN       CLOUDY    39  36  89 N17       30.13R
WATERTOWN      CLOUDY    38  36  92 N7        30.06R
SISSETON         N/A     42  40  92 N12       30.07R
$$

SDZ017-020-022-023-036>040-048>070-301500-
SOUTHEAST SOUTH DAKOTA

CITY           SKY/WX    TMP DP  RH WIND       PRES   REMARKS
SIOUX FALLS    PTCLDY    44  34  67 N12       30.04R
HURON          CLEAR     39  36  89 NW16      30.11R
CHAMBERLAIN    CLEAR     42  37  83 NW21G26   30.14R
MITCHELL       CLEAR     42  38  85 NW15      30.10R
YANKTON        CLEAR     43  36  75 NW15      30.07R
$$

ABBREVIATIONS USED IN REMARKS
   TC - TEMPERATURE IN CELSIUS
  WCI - WIND CHILL INDEX
   HX - HEAT INDEX
  VSB - VISIBILITY




USA.gov is the U.S. government's official web portal to all federal, state and local government web resources and services.